Location: Aciu?a
(46.2833°N, 22.4500°E)
Time: 13:34:42
(UTC+00:00)

Cosmos 332 Rocket - Pass Details

Date: 25 October 2021
Orbit: 682 x 703 km, 74.0° (Epoch: 07 December)

Event Time Altitude Azimuth Distance (km) Brightness Sun altitude
Rises 16:40:32 0° 196° (SSW) 3,073 7.4 -13.4°
Reaches altitude 10° 16:42:51 10° 196° (SSW) 2,157 6.6 -13.8°
Maximum altitude 16:47:42 80° 110° (ESE) 715 3.7 -14.6°
Drops below altitude 10° 16:52:35 10° 24° (NNE) 2,161 6.1 -15.5°
Sets 16:54:54 0° 23° (NNE) 3,079 6.9 -15.9°
